Middlesboro, KY

4:57 AM EST on February 24, 2017 (GMT -0500)
Middlesboro

Weather History for K1A6 - December, 2013

Change the Weather History Date:

Friday, December 27, 2013

  Actual Average (KLOZ) Record (KLOZ)
Temperature  
Mean Temperature 36 °F -  
Max Temperature 51 °F 44 °F 75 °F (2015)
Min Temperature 20 °F 28 °F 4 °F (1966)
Degree Days  
Heating Degree Days 30    
Moisture  
Dew Point 23 °F    
Average Humidity 75    
Maximum Humidity 96    
Minimum Humidity 30    
Precipitation  
Precipitation 0.00 in - - ()
Sea Level Pressure  
Sea Level Pressure 30.41 in    
Wind  
Wind Speed 0 mph (SSE)    
Max Wind Speed 7 mph    
Max Gust Speed -    
Visibility 9 miles    
Events      
Averages and records for this station are not official NWS values.
T = Trace of Precipitation, MM = Missing Value Source: NWS Daily Summary

Daily Weather History Graph

Daily Weather History Graph

Search for Another Location

Airport or City:

Trip Planner

Search our weather history database for the weather conditions in past years. The results will help you decide how hot, cold, wet, or windy it might be!

Date:

Astronomy

Dec. 27, 2013 Rise Set
Actual Time 6:46 AM CST 4:26 PM CST
Civil Twilight 6:17 AM CST 4:55 PM CST
Nautical Twilight 5:44 AM CST 5:27 PM CST
Astronomical Twilight 5:13 AM CST 5:59 PM CST
Moon 1:21 AM CST (12/27) 12:31 PM CST (12/27)
Length of Visible Light 10h 38m
Length of Day
9h 40m
Waning Crescent, 28% of the Moon is Illuminated
Dec 27
Waning Crescent
Jan 1
New
Jan 7
First Quarter
Jan 15
Full
Jan 23
Last Quarter

Hourly Weather History & Observations

Time (CST) Temp. Dew Point Humidity Pressure Visibility Wind Dir Wind Speed Gust Speed Precip Events Conditions
12:15 AM 23.5 °F 21.9 °F 94% 30.39 in 7.0 mi Calm Calm - N/A   Clear
12:35 AM 23.7 °F 21.9 °F 93% 30.39 in 10.0 mi Calm Calm - N/A   Clear
12:55 AM 22.8 °F 21.2 °F 93% 30.40 in 7.0 mi Calm Calm - N/A   Clear
1:15 AM 23.2 °F 21.7 °F 94% 30.40 in 7.0 mi Calm Calm - N/A   Clear
1:35 AM 23.4 °F 21.9 °F 94% 30.41 in 7.0 mi Calm Calm - N/A   Clear
1:55 AM 22.8 °F 21.0 °F 93% 30.41 in 7.0 mi Calm Calm - N/A   Clear
2:15 AM 22.8 °F 21.2 °F 93% 30.41 in 7.0 mi Calm Calm - N/A   Clear
2:35 AM 22.6 °F 21.2 °F 94% 30.41 in 7.0 mi Calm Calm - N/A   Clear
2:55 AM 21.9 °F 20.5 °F 94% 30.41 in 7.0 mi Calm Calm - N/A   Clear
3:15 AM 21.9 °F 20.7 °F 95% 30.40 in 7.0 mi Calm Calm - N/A   Clear
3:35 AM 21.9 °F 20.7 °F 95% 30.39 in 7.0 mi Calm Calm - N/A   Clear
3:55 AM 21.2 °F 19.4 °F 93% 30.39 in 7.0 mi Calm Calm - N/A   Clear
4:15 AM 21.7 °F 20.3 °F 94% 30.40 in 10.0 mi Calm Calm - N/A   Clear
4:35 AM 21.4 °F 20.3 °F 96% 30.40 in 7.0 mi Calm Calm - N/A   Clear
4:55 AM 21.2 °F 19.8 °F 94% 30.40 in 10.0 mi Calm Calm - N/A   Clear
5:15 AM 21.2 °F 19.9 °F 95% 30.41 in 7.0 mi Calm Calm - N/A   Clear
5:35 AM 21.2 °F 19.6 °F 93% 30.42 in 10.0 mi Calm Calm - N/A   Clear
5:55 AM 21.0 °F 19.4 °F 93% 30.43 in 7.0 mi Calm Calm - N/A   Clear
6:15 AM 21.0 °F 19.4 °F 93% 30.43 in 7.0 mi Calm Calm - N/A   Clear
6:35 AM 20.8 °F 19.4 °F 94% 30.44 in 10.0 mi Calm Calm - N/A   Clear
6:55 AM 21.0 °F 19.4 °F 93% 30.44 in 7.0 mi Calm Calm - N/A   Clear
7:15 AM 20.1 °F 18.5 °F 93% 30.45 in 10.0 mi Calm Calm - N/A   Clear
7:35 AM 21.2 °F 19.4 °F 93% 30.46 in 10.0 mi Calm Calm - N/A   Clear
7:55 AM 22.3 °F 20.8 °F 94% 30.46 in 7.0 mi Calm Calm - N/A   Clear
8:15 AM 23.7 °F 21.9 °F 93% 30.46 in 10.0 mi Calm Calm - N/A   Clear
8:35 AM 25.7 °F 23.5 °F 92% 30.47 in 10.0 mi Calm Calm - N/A   Clear
8:55 AM 27.7 °F 24.6 °F 88% 30.48 in 10.0 mi Calm Calm - N/A   Clear
9:15 AM 29.7 °F 25.5 °F 85% 30.48 in 10.0 mi Calm Calm - N/A   Clear
9:35 AM 31.1 °F 25.0 °F 78% 30.48 in 10.0 mi Calm Calm - N/A   Clear
9:55 AM 33.3 °F 26.1 °F 75% 30.47 in 10.0 mi Calm Calm - N/A   Clear
10:15 AM 35.2 °F 25.9 °F 69% 30.47 in 10.0 mi Calm Calm - N/A   Clear
10:35 AM 37.6 °F 25.2 °F 61% 30.46 in 10.0 mi Calm Calm - N/A   Clear
10:55 AM 39.0 °F 25.5 °F 58% 30.46 in 10.0 mi Calm Calm - N/A   Clear
11:15 AM 41.0 °F 26.2 °F 56% 30.45 in 10.0 mi Calm Calm - N/A   Clear
11:35 AM 43.5 °F 26.1 °F 50% 30.44 in 10.0 mi Calm Calm - N/A   Clear
11:55 AM 45.5 °F 25.9 °F 46% 30.43 in 10.0 mi Calm Calm - N/A   Clear
12:15 PM 46.9 °F 23.5 °F 40% 30.41 in 10.0 mi Calm Calm - N/A   Clear
12:35 PM 47.7 °F 24.4 °F 40% 30.41 in 10.0 mi Calm Calm - N/A   Clear
12:55 PM 49.1 °F 23.7 °F 37% 30.40 in 10.0 mi South 3.5 mph - N/A   Clear
1:15 PM 49.6 °F 23.2 °F 35% 30.39 in 10.0 mi East 3.5 mph - N/A   Clear
1:35 PM 50.9 °F 22.8 °F 33% 30.38 in 10.0 mi South 3.5 mph - N/A   Clear
1:55 PM 51.1 °F 21.9 °F 32% 30.38 in 10.0 mi ESE 3.5 mph - N/A   Clear
2:15 PM 51.1 °F 21.7 °F 32% 30.37 in 10.0 mi SSE 5.8 mph - N/A   Clear
2:35 PM 50.9 °F 22.1 °F 32% 30.38 in 10.0 mi South 4.6 mph - N/A   Clear
2:55 PM 50.9 °F 21.4 °F 31% 30.38 in 10.0 mi South 6.9 mph - N/A   Clear
3:15 PM 49.8 °F 20.5 °F 32% 30.39 in 10.0 mi South 3.5 mph - N/A   Clear
3:35 PM 49.1 °F 18.7 °F 30% 30.39 in 10.0 mi SSE 4.6 mph - N/A   Clear
3:55 PM 47.5 °F 19.9 °F 34% 30.39 in 10.0 mi SSE 3.5 mph - N/A   Clear
4:15 PM 43.3 °F 24.1 °F 47% 30.38 in 10.0 mi Calm Calm - N/A   Clear
4:35 PM 39.9 °F 25.9 °F 57% 30.38 in 10.0 mi Calm Calm - N/A   Clear
4:55 PM 36.3 °F 25.7 °F 65% 30.39 in 10.0 mi Calm Calm - N/A   Clear
5:15 PM 36.5 °F 25.7 °F 65% 30.38 in 10.0 mi Calm Calm - N/A   Clear
5:35 PM 34.7 °F 24.8 °F 67% 30.38 in 10.0 mi Calm Calm - N/A   Clear
5:55 PM 35.1 °F 24.6 °F 66% 30.39 in 10.0 mi Calm Calm - N/A   Clear
6:15 PM 32.2 °F 25.7 °F 77% 30.40 in 10.0 mi Calm Calm - N/A   Clear
6:35 PM 32.0 °F 25.2 °F 76% 30.41 in 10.0 mi Calm Calm - N/A   Clear
6:55 PM 30.7 °F 24.6 °F 78% 30.41 in 10.0 mi Calm Calm - N/A   Clear
7:15 PM 30.2 °F 24.8 °F 80% 30.41 in 10.0 mi Calm Calm - N/A   Clear
7:35 PM 28.8 °F 24.6 °F 84% 30.41 in 10.0 mi Calm Calm - N/A   Clear
7:55 PM 28.6 °F 23.7 °F 82% 30.41 in 10.0 mi Calm Calm - N/A   Clear
8:15 PM 27.9 °F 24.1 °F 86% 30.41 in 10.0 mi Calm Calm - N/A   Clear
8:35 PM 27.3 °F 24.3 °F 88% 30.41 in 10.0 mi Calm Calm - N/A   Clear
8:55 PM 27.1 °F 23.7 °F 87% 30.42 in 10.0 mi Calm Calm - N/A   Clear
9:15 PM 27.0 °F 23.5 °F 87% 30.41 in 10.0 mi Calm Calm - N/A   Clear
9:35 PM 26.4 °F 24.1 °F 91% 30.42 in 10.0 mi Calm Calm - N/A   Clear
9:55 PM 25.9 °F 23.0 °F 89% 30.42 in 10.0 mi Calm Calm - N/A   Clear
10:15 PM 25.5 °F 23.4 °F 92% 30.41 in 10.0 mi Calm Calm - N/A   Clear
10:35 PM 25.5 °F 23.2 °F 91% 30.41 in 10.0 mi Calm Calm - N/A   Clear
10:55 PM 25.0 °F 22.6 °F 91% 30.41 in 10.0 mi Calm Calm - N/A   Clear
11:15 PM 24.8 °F 22.5 °F 91% 30.41 in 10.0 mi Calm Calm - N/A   Clear
11:35 PM 24.8 °F 22.5 °F 91% 30.41 in 10.0 mi Calm Calm - N/A   Clear
11:55 PM 24.4 °F 22.6 °F 93% 30.40 in 10.0 mi Calm Calm - N/A   Clear